Time,TemperatureF,DewpointF,PressureIn,WindDirection,WindDirectionDegrees,WindSpeedMPH,WindSpeedGustMPH,Humidity,HourlyPrecipIn,Conditions,Clouds,dailyrainin,SoftwareType,DateUTC
2013-06-13 00:02:00,83.0,76.0,-100.00,WNW,285,0.0,0.0,79,-99.99,,,-99.99,,2013-06-13 05:02:00,
2013-06-13 00:12:00,82.0,75.0,-100.00,West,265,0.0,0.0,80,-99.99,,,-99.99,,2013-06-13 05:12:00,
2013-06-13 00:24:00,82.0,75.0,-100.00,West,265,0.0,0.0,80,-99.99,,,-99.99,,2013-06-13 05:24:00,
2013-06-13 00:33:00,81.0,73.0,-100.00,West,280,0.0,0.0,79,-99.99,,,-99.99,,2013-06-13 05:33:00,
2013-06-13 00:43:00,80.0,73.0,-100.00,NW,305,0.0,0.0,80,-99.99,,,-99.99,,2013-06-13 05:43:00,
2013-06-13 00:53:00,80.0,73.0,-100.00,NW,305,0.0,0.0,80,-99.99,,,-99.99,,2013-06-13 05:53:00,
2013-06-13 01:02:00,79.0,73.0,-100.00,WNW,295,0.0,0.0,82,-99.99,,,-99.99,,2013-06-13 06:02:00,
2013-06-13 01:11:00,78.0,71.0,-100.00,WNW,285,0.0,0.0,81,-99.99,,,-99.99,,2013-06-13 06:11:00,
2013-06-13 01:22:00,78.0,71.0,-100.00,WNW,285,0.0,0.0,81,-99.99,,,-99.99,,2013-06-13 06:22:00,
2013-06-13 01:33:00,76.0,70.0,-100.00,WNW,285,0.0,0.0,81,-99.99,,,-99.99,,2013-06-13 06:33:00,
2013-06-13 01:44:00,76.0,70.0,-100.00,West,265,0.0,0.0,82,-99.99,,,-99.99,,2013-06-13 06:44:00,
2013-06-13 01:52:00,76.0,70.0,-100.00,West,265,0.0,0.0,82,-99.99,,,-99.99,,2013-06-13 06:52:00,
2013-06-13 02:01:00,75.0,70.0,-100.00,West,275,0.0,0.0,84,-99.99,,,-99.99,,2013-06-13 07:01:00,
2013-06-13 02:12:00,75.0,69.0,-100.00,WNW,285,0.0,0.0,82,-99.99,,,-99.99,,2013-06-13 07:12:00,
2013-06-13 02:22:00,75.0,69.0,-100.00,WNW,285,0.0,0.0,82,-99.99,,,-99.99,,2013-06-13 07:22:00,
2013-06-13 02:33:00,74.0,68.0,-100.00,WNW,290,0.0,0.0,79,-99.99,,,-99.99,,2013-06-13 07:33:00,
2013-06-13 02:42:00,73.0,66.0,-100.00,West,265,0.0,0.0,78,-99.99,,,-99.99,,2013-06-13 07:42:00,
2013-06-13 02:52:00,73.0,66.0,-100.00,West,265,0.0,0.0,78,-99.99,,,-99.99,,2013-06-13 07:52:00,
2013-06-13 03:01:00,73.0,66.0,-100.00,West,280,0.0,0.0,79,-99.99,,,-99.99,,2013-06-13 08:01:00,
2013-06-13 03:11:00,72.0,66.0,-100.00,WSW,255,0.0,0.0,80,-99.99,,,-99.99,,2013-06-13 08:11:00,
2013-06-13 03:22:00,72.0,66.0,-100.00,WSW,255,0.0,0.0,80,-99.99,,,-99.99,,2013-06-13 08:22:00,
2013-06-13 03:32:00,72.0,66.0,-100.00,WSW,245,0.0,0.0,82,-99.99,,,-99.99,,2013-06-13 08:32:00,
2013-06-13 03:43:00,71.0,66.0,-100.00,West,260,0.0,0.0,84,-99.99,,,-99.99,,2013-06-13 08:43:00,
2013-06-13 03:52:00,71.0,66.0,-100.00,West,260,0.0,0.0,84,-99.99,,,-99.99,,2013-06-13 08:52:00,
2013-06-13 04:02:00,71.0,66.0,-100.00,West,265,0.0,0.0,86,-99.99,,,-99.99,,2013-06-13 09:02:00,
2013-06-13 04:12:00,70.0,67.0,-100.00,West,280,0.0,0.0,89,-99.99,,,-99.99,,2013-06-13 09:12:00,
2013-06-13 04:22:00,70.0,67.0,-100.00,West,280,0.0,0.0,89,-99.99,,,-99.99,,2013-06-13 09:22:00,
2013-06-13 04:32:00,70.0,67.0,-100.00,West,275,0.0,0.0,91,-99.99,,,-99.99,,2013-06-13 09:32:00,
2013-06-13 04:42:00,69.0,67.0,-100.00,West,265,0.0,0.0,93,-99.99,,,-99.99,,2013-06-13 09:42:00,
2013-06-13 04:52:00,69.0,67.0,-100.00,West,265,0.0,0.0,93,-99.99,,,-99.99,,2013-06-13 09:52:00,
2013-06-13 05:01:00,69.0,68.0,-100.00,West,260,0.0,0.0,94,-99.99,,,-99.99,,2013-06-13 10:01:00,
2013-06-13 05:11:00,69.0,68.0,-100.00,WNW,285,0.0,0.0,96,-99.99,,,-99.99,,2013-06-13 10:11:00,
2013-06-13 05:22:00,69.0,68.0,-100.00,WNW,285,0.0,0.0,96,-99.99,,,-99.99,,2013-06-13 10:22:00,
2013-06-13 05:33:00,69.0,68.0,-100.00,West,270,0.0,0.0,97,-99.99,,,-99.99,,2013-06-13 10:33:00,
2013-06-13 05:43:00,69.0,69.0,-100.00,WNW,290,0.0,0.0,98,-99.99,,,-99.99,,2013-06-13 10:43:00,
2013-06-13 05:53:00,69.0,69.0,-100.00,WNW,290,0.0,0.0,98,-99.99,,,-99.99,,2013-06-13 10:53:00,
2013-06-13 06:02:00,70.0,70.0,-100.00,West,265,0.0,0.0,99,-99.99,,,-99.99,,2013-06-13 11:02:00,
2013-06-13 06:11:00,70.0,70.0,-100.00,NW,315,0.0,0.0,99,-99.99,,,-99.99,,2013-06-13 11:11:00,
2013-06-13 06:23:00,70.0,70.0,-100.00,NW,315,0.0,0.0,99,-99.99,,,-99.99,,2013-06-13 11:23:00,
2013-06-13 06:32:00,70.0,70.0,-100.00,NW,320,0.0,0.0,99,-99.99,,,-99.99,,2013-06-13 11:32:00,
2013-06-13 06:42:00,70.0,70.0,-100.00,NNW,330,0.0,0.0,99,-99.99,,,-99.99,,2013-06-13 11:42:00,
2013-06-13 06:52:00,70.0,70.0,-100.00,NNW,330,0.0,0.0,99,-99.99,,,-99.99,,2013-06-13 11:52:00,
2013-06-13 07:01:00,70.0,70.0,-100.00,NNW,340,0.0,0.0,99,-99.99,,,-99.99,,2013-06-13 12:01:00,
2013-06-13 07:12:00,70.0,70.0,-100.00,North,350,0.0,0.0,99,-99.99,,,-99.99,,2013-06-13 12:12:00,
2013-06-13 07:22:00,70.0,70.0,-100.00,North,350,0.0,0.0,99,-99.99,,,-99.99,,2013-06-13 12:22:00,
2013-06-13 07:35:00,70.0,70.0,-100.00,North,350,0.0,0.0,99,-99.99,,,-99.99,,2013-06-13 12:35:00,
2013-06-13 07:42:00,70.0,70.0,-100.00,North,0,0.0,0.0,98,-99.99,,,-99.99,,2013-06-13 12:42:00,
2013-06-13 07:52:00,70.0,70.0,-100.00,North,0,0.0,0.0,98,-99.99,,,-99.99,,2013-06-13 12:52:00,
2013-06-13 08:01:00,70.0,69.0,-100.00,North,355,0.0,0.0,96,-99.99,,,-99.99,,2013-06-13 13:01:00,
2013-06-13 08:11:00,70.0,69.0,-100.00,NNW,340,0.0,0.0,96,-99.99,,,-99.99,,2013-06-13 13:11:00,
2013-06-13 08:22:00,70.0,69.0,-100.00,NNW,340,0.0,0.0,96,-99.99,,,-99.99,,2013-06-13 13:22:00,
2013-06-13 08:32:00,70.0,69.0,-100.00,NW,315,0.0,0.0,97,-99.99,,,-99.99,,2013-06-13 13:32:00,
2013-06-13 08:43:00,69.0,69.0,-100.00,NNW,335,0.0,0.0,99,-99.99,,,-99.99,,2013-06-13 13:43:00,
2013-06-13 08:53:00,69.0,69.0,-100.00,NNW,335,0.0,0.0,99,-99.99,,,-99.99,,2013-06-13 13:53:00,
2013-06-13 09:02:00,69.0,69.0,-100.00,NNW,340,0.0,0.0,99,-99.99,,,-99.99,,2013-06-13 14:02:00,
2013-06-13 09:11:00,70.0,70.0,-100.00,NW,320,0.0,0.0,99,-99.99,,,-99.99,,2013-06-13 14:11:00,
2013-06-13 09:22:00,70.0,70.0,-100.00,NW,320,0.0,0.0,99,-99.99,,,-99.99,,2013-06-13 14:22:00,
2013-06-13 09:33:00,72.0,70.0,-100.00,NW,320,0.0,0.0,92,-99.99,,,-99.99,,2013-06-13 14:33:00,
2013-06-13 09:43:00,74.0,68.0,-100.00,North,350,0.0,0.0,82,-99.99,,,-99.99,,2013-06-13 14:43:00,
2013-06-13 09:53:00,74.0,68.0,-100.00,North,350,0.0,0.0,82,-99.99,,,-99.99,,2013-06-13 14:53:00,
2013-06-13 10:02:00,75.0,68.0,-100.00,NE,45,0.0,0.0,77,-99.99,,,-99.99,,2013-06-13 15:02:00,
2013-06-13 10:12:00,76.0,67.0,-100.00,North,350,0.0,0.0,73,-99.99,,,-99.99,,2013-06-13 15:12:00,
2013-06-13 10:22:00,76.0,67.0,-100.00,North,350,0.0,0.0,73,-99.99,,,-99.99,,2013-06-13 15:22:00,
2013-06-13 10:33:00,76.0,67.0,-100.00,NNW,330,0.0,0.0,72,-99.99,,,-99.99,,2013-06-13 15:33:00,
2013-06-13 10:43:00,76.0,67.0,-100.00,NNW,330,0.0,0.0,72,-99.99,,,-99.99,,2013-06-13 15:43:00,
2013-06-13 10:53:00,78.0,67.0,-100.00,NW,325,0.0,0.0,69,-99.99,,,-99.99,,2013-06-13 15:53:00,
2013-06-13 11:02:00,78.0,65.0,-100.00,NE,55,0.0,0.0,64,-99.99,,,-99.99,,2013-06-13 16:02:00,
2013-06-13 11:12:00,80.0,66.0,-100.00,North,355,0.0,0.0,62,-99.99,,,-99.99,,2013-06-13 16:12:00,
2013-06-13 11:22:00,80.0,66.0,-100.00,North,355,0.0,0.0,62,-99.99,,,-99.99,,2013-06-13 16:22:00,
2013-06-13 11:33:00,81.0,65.0,-100.00,North,350,0.0,0.0,58,-99.99,,,-99.99,,2013-06-13 16:33:00,
2013-06-13 11:43:00,82.0,64.0,-100.00,ENE,65,0.0,0.0,55,-99.99,,,-99.99,,2013-06-13 16:43:00,
2013-06-13 11:53:00,82.0,64.0,-100.00,ENE,65,0.0,0.0,55,-99.99,,,-99.99,,2013-06-13 16:53:00,
2013-06-13 12:02:00,82.0,63.0,-100.00,NE,45,0.0,0.0,53,-99.99,,,-99.99,,2013-06-13 17:02:00,
2013-06-13 12:11:00,83.0,63.0,-100.00,East,90,0.0,0.0,51,-99.99,,,-99.99,,2013-06-13 17:11:00,
2013-06-13 12:24:00,83.0,63.0,-100.00,East,90,0.0,0.0,51,-99.99,,,-99.99,,2013-06-13 17:24:00,
2013-06-13 12:33:00,83.0,63.0,-100.00,East,90,0.0,0.0,51,-99.99,,,-99.99,,2013-06-13 17:33:00,
2013-06-13 12:43:00,84.0,62.0,-100.00,North,0,0.0,0.0,48,-99.99,,,-99.99,,2013-06-13 17:43:00,
2013-06-13 12:53:00,84.0,62.0,-100.00,North,0,0.0,0.0,48,-99.99,,,-99.99,,2013-06-13 17:53:00,
2013-06-13 13:02:00,84.0,62.0,-100.00,NE,55,0.0,0.0,47,-99.99,,,-99.99,,2013-06-13 18:02:00,
2013-06-13 13:11:00,85.0,62.0,-100.00,NE,45,0.0,0.0,46,-99.99,,,-99.99,,2013-06-13 18:11:00,
2013-06-13 13:22:00,85.0,62.0,-100.00,NE,45,0.0,0.0,46,-99.99,,,-99.99,,2013-06-13 18:22:00,
2013-06-13 13:33:00,87.0,63.0,-100.00,East,80,0.0,0.0,45,-99.99,,,-99.99,,2013-06-13 18:33:00,
2013-06-13 13:43:00,87.0,63.0,-100.00,East,80,0.0,0.0,45,-99.99,,,-99.99,,2013-06-13 18:43:00,
2013-06-13 13:52:00,87.0,63.0,-100.00,East,80,0.0,0.0,45,-99.99,,,-99.99,,2013-06-13 18:52:00,
2013-06-13 14:01:00,88.0,63.0,-100.00,East,100,0.0,0.0,44,-99.99,,,-99.99,,2013-06-13 19:01:00,
2013-06-13 14:11:00,88.0,63.0,-100.00,East,95,0.0,0.0,44,-99.99,,,-99.99,,2013-06-13 19:11:00,
2013-06-13 14:22:00,88.0,63.0,-100.00,East,95,0.0,0.0,44,-99.99,,,-99.99,,2013-06-13 19:22:00,
2013-06-13 14:33:00,88.0,63.0,-100.00,East,100,0.0,0.0,44,-99.99,,,-99.99,,2013-06-13 19:33:00,
2013-06-13 14:43:00,87.0,62.0,-100.00,ENE,60,0.0,0.0,44,-99.99,,,-99.99,,2013-06-13 19:43:00,
2013-06-13 14:53:00,87.0,62.0,-100.00,ENE,60,0.0,0.0,44,-99.99,,,-99.99,,2013-06-13 19:53:00,
2013-06-13 15:02:00,86.0,61.0,-100.00,East,100,0.0,0.0,43,-99.99,,,-99.99,,2013-06-13 20:02:00,
2013-06-13 15:11:00,87.0,61.0,-100.00,East,95,0.0,0.0,42,-99.99,,,-99.99,,2013-06-13 20:11:00,
2013-06-13 15:22:00,87.0,61.0,-100.00,East,95,0.0,0.0,42,-99.99,,,-99.99,,2013-06-13 20:22:00,
2013-06-13 15:33:00,89.0,62.0,-100.00,North,355,0.0,0.0,41,-99.99,,,-99.99,,2013-06-13 20:33:00,
2013-06-13 15:44:00,88.0,61.0,-100.00,NE,45,0.0,0.0,41,-99.99,,,-99.99,,2013-06-13 20:44:00,
2013-06-13 15:53:00,88.0,61.0,-100.00,NE,45,0.0,0.0,41,-99.99,,,-99.99,,2013-06-13 20:53:00,
2013-06-13 16:02:00,87.0,61.0,-100.00,NE,45,0.0,0.0,42,-99.99,,,-99.99,,2013-06-13 21:02:00,
2013-06-13 16:11:00,86.0,60.0,-100.00,East,90,0.0,0.0,42,-99.99,,,-99.99,,2013-06-13 21:11:00,
2013-06-13 16:22:00,86.0,60.0,-100.00,East,90,0.0,0.0,42,-99.99,,,-99.99,,2013-06-13 21:22:00,
2013-06-13 16:34:00,86.0,60.0,-100.00,East,90,0.0,0.0,42,-99.99,,,-99.99,,2013-06-13 21:34:00,
2013-06-13 16:43:00,85.0,61.0,-100.00,NNE,25,1.0,7.0,44,-99.99,,,-99.99,,2013-06-13 21:43:00,
2013-06-13 16:52:00,85.0,61.0,-100.00,NNE,25,1.0,7.0,44,-99.99,,,-99.99,,2013-06-13 21:52:00,
2013-06-13 17:02:00,84.0,59.0,-100.00,NE,35,0.0,11.0,43,-99.99,,,-99.99,,2013-06-13 22:02:00,
2013-06-13 17:11:00,83.0,59.0,-100.00,East,80,0.0,0.0,44,-99.99,,,-99.99,,2013-06-13 22:11:00,
2013-06-13 17:22:00,83.0,59.0,-100.00,East,80,0.0,0.0,44,-99.99,,,-99.99,,2013-06-13 22:22:00,
2013-06-13 17:33:00,82.0,59.0,-100.00,ESE,115,0.0,0.0,45,-99.99,,,-99.99,,2013-06-13 22:33:00,
2013-06-13 17:43:00,82.0,58.0,-100.00,NE,55,0.0,0.0,45,-99.99,,,-99.99,,2013-06-13 22:43:00,
2013-06-13 17:52:00,82.0,58.0,-100.00,NE,55,0.0,0.0,45,-99.99,,,-99.99,,2013-06-13 22:52:00,
2013-06-13 18:02:00,82.0,59.0,-100.00,NE,55,0.0,0.0,46,-99.99,,,-99.99,,2013-06-13 23:02:00,
2013-06-13 18:11:00,81.0,59.0,-100.00,East,100,0.0,0.0,46,-99.99,,,-99.99,,2013-06-13 23:11:00,
2013-06-13 18:22:00,81.0,59.0,-100.00,East,100,0.0,0.0,46,-99.99,,,-99.99,,2013-06-13 23:22:00,
2013-06-13 18:32:00,81.0,59.0,-100.00,ENE,65,0.0,0.0,47,-99.99,,,-99.99,,2013-06-13 23:32:00,
2013-06-13 18:43:00,81.0,59.0,-100.00,East,90,0.0,0.0,48,-99.99,,,-99.99,,2013-06-13 23:43:00,
2013-06-13 18:52:00,81.0,59.0,-100.00,East,90,0.0,0.0,48,-99.99,,,-99.99,,2013-06-13 23:52:00,
2013-06-13 19:01:00,80.0,58.0,-100.00,East,80,0.0,0.0,47,-99.99,,,-99.99,,2013-06-14 00:01:00,
2013-06-13 19:12:00,80.0,59.0,-100.00,ESE,105,0.0,0.0,48,-99.99,,,-99.99,,2013-06-14 00:12:00,
2013-06-13 19:22:00,80.0,59.0,-100.00,ESE,105,0.0,0.0,48,-99.99,,,-99.99,,2013-06-14 00:22:00,
2013-06-13 19:34:00,80.0,59.0,-100.00,NE,55,0.0,2.0,50,-99.99,,,-99.99,,2013-06-14 00:34:00,
2013-06-13 19:43:00,79.0,59.0,-100.00,East,80,0.0,1.0,51,-99.99,,,-99.99,,2013-06-14 00:43:00,
2013-06-13 19:53:00,79.0,59.0,-100.00,East,80,0.0,1.0,51,-99.99,,,-99.99,,2013-06-14 00:53:00,
2013-06-13 20:01:00,79.0,60.0,-100.00,ENE,60,0.0,0.0,53,-99.99,,,-99.99,,2013-06-14 01:01:00,
2013-06-13 20:43:00,76.0,63.0,-100.00,ENE,70,0.0,0.0,64,-99.99,,,-99.99,,2013-06-14 01:43:00,
2013-06-13 20:52:00,76.0,63.0,-100.00,ENE,70,0.0,0.0,64,-99.99,,,-99.99,,2013-06-14 01:52:00,
2013-06-13 21:02:00,76.0,64.0,-100.00,East,85,0.0,0.0,65,-99.99,,,-99.99,,2013-06-14 02:02:00,
2013-06-13 21:11:00,76.0,63.0,-100.00,East,95,0.0,0.0,64,-99.99,,,-99.99,,2013-06-14 02:11:00,
2013-06-13 21:22:00,76.0,63.0,-100.00,East,95,0.0,0.0,64,-99.99,,,-99.99,,2013-06-14 02:22:00,
2013-06-13 21:32:00,76.0,63.0,-100.00,East,100,0.0,0.0,64,-99.99,,,-99.99,,2013-06-14 02:32:00,
2013-06-13 21:43:00,76.0,63.0,-100.00,East,100,0.0,0.0,64,-99.99,,,-99.99,,2013-06-14 02:43:00,
2013-06-13 21:53:00,76.0,63.0,-100.00,East,100,0.0,0.0,64,-99.99,,,-99.99,,2013-06-14 02:53:00,
2013-06-13 22:02:00,74.0,65.0,-100.00,ESE,120,0.0,0.0,72,-99.99,,,-99.99,,2013-06-14 03:02:00,
2013-06-13 22:12:00,74.0,66.0,-100.00,SE,135,0.0,0.0,76,-99.99,,,-99.99,,2013-06-14 03:12:00,
2013-06-13 22:22:00,74.0,66.0,-100.00,SE,135,0.0,0.0,76,-99.99,,,-99.99,,2013-06-14 03:22:00,
2013-06-13 22:34:00,73.0,66.0,-100.00,ESE,120,0.0,0.0,78,-99.99,,,-99.99,,2013-06-14 03:34:00,
2013-06-13 22:43:00,73.0,67.0,-100.00,ESE,115,0.0,0.0,81,-99.99,,,-99.99,,2013-06-14 03:43:00,
2013-06-13 22:53:00,73.0,67.0,-100.00,ESE,115,0.0,0.0,81,-99.99,,,-99.99,,2013-06-14 03:53:00,
2013-06-13 23:01:00,72.0,65.0,-100.00,ESE,120,0.0,0.0,80,-99.99,,,-99.99,,2013-06-14 04:01:00,
2013-06-13 23:12:00,71.0,65.0,-100.00,ESE,115,0.0,0.0,79,-99.99,,,-99.99,,2013-06-14 04:12:00,
2013-06-13 23:22:00,71.0,65.0,-100.00,ESE,115,0.0,0.0,79,-99.99,,,-99.99,,2013-06-14 04:22:00,
2013-06-13 23:33:00,71.0,64.0,-100.00,SE,125,0.0,0.0,78,-99.99,,,-99.99,,2013-06-14 04:33:00,
2013-06-13 23:43:00,71.0,65.0,-100.00,East,100,0.0,0.0,80,-99.99,,,-99.99,,2013-06-14 04:43:00,
2013-06-13 23:53:00,71.0,65.0,-100.00,East,100,0.0,0.0,80,-99.99,,,-99.99,,2013-06-14 04:53:00,